TimeCST,TemperatureF,Dew PointF,Humidity,Sea Level PressureIn,VisibilityMPH,Wind Direction,Wind SpeedMPH,Gust SpeedMPH,PrecipitationIn,Events,Conditions,WindDirDegrees,DateUTC
12:15 AM,19.4,6.8,58,30.23,10.0,East,12.7,-,N/A,,Partly Cloudy,100,2013-02-21 06:15:00
12:35 AM,19.4,6.8,58,30.23,10.0,East,10.4,16.1,N/A,,Clear,90,2013-02-21 06:35:00
12:55 AM,19.4,6.8,58,30.23,10.0,East,10.4,-,N/A,,Clear,90,2013-02-21 06:55:00
1:15 AM,19.4,6.8,58,30.22,10.0,East,12.7,-,N/A,,Clear,80,2013-02-21 07:15:00
1:35 AM,19.4,6.8,58,30.21,10.0,East,11.5,16.1,N/A,,Clear,90,2013-02-21 07:35:00
1:55 AM,19.4,8.6,63,30.21,10.0,East,10.4,-,N/A,,Scattered Clouds,90,2013-02-21 07:55:00
2:15 AM,19.4,8.6,63,30.19,10.0,East,9.2,-,N/A,,Scattered Clouds,80,2013-02-21 08:15:00
2:35 AM,19.4,8.6,63,30.19,10.0,East,11.5,-,N/A,,Mostly Cloudy,80,2013-02-21 08:35:00
2:55 AM,17.6,8.6,68,30.18,10.0,East,10.4,-,N/A,,Mostly Cloudy,80,2013-02-21 08:55:00
3:15 AM,17.6,8.6,68,30.16,10.0,ENE,11.5,-,N/A,,Clear,70,2013-02-21 09:15:00
3:35 AM,17.6,8.6,68,30.15,10.0,ENE,13.8,-,N/A,,Clear,70,2013-02-21 09:35:00
3:55 AM,17.6,8.6,68,30.15,10.0,East,10.4,-,N/A,,Partly Cloudy,80,2013-02-21 09:55:00
4:15 AM,17.6,8.6,68,30.15,10.0,East,10.4,-,N/A,,Scattered Clouds,80,2013-02-21 10:15:00
4:35 AM,17.6,10.4,73,30.18,10.0,East,9.2,-,N/A,,Mostly Cloudy,100,2013-02-21 10:35:00
4:55 AM,17.6,10.4,73,30.17,10.0,East,10.4,16.1,N/A,,Overcast,90,2013-02-21 10:55:00
5:15 AM,17.6,10.4,73,30.14,10.0,ENE,13.8,-,N/A,,Mostly Cloudy,70,2013-02-21 11:15:00
6:15 AM,17.6,10.4,73,30.14,10.0,ENE,11.5,18.4,N/A,,Scattered Clouds,70,2013-02-21 12:15:00
6:35 AM,17.6,10.4,73,30.15,10.0,East,15.0,-,N/A,,Clear,80,2013-02-21 12:35:00
6:55 AM,17.6,10.4,73,30.15,10.0,ENE,9.2,-,N/A,,Clear,70,2013-02-21 12:55:00
7:15 AM,17.6,10.4,73,30.15,10.0,ENE,11.5,-,N/A,,Scattered Clouds,70,2013-02-21 13:15:00
7:35 AM,17.6,10.4,73,30.15,10.0,ENE,12.7,-,N/A,,Scattered Clouds,70,2013-02-21 13:35:00
7:55 AM,17.6,10.4,73,30.15,10.0,East,13.8,-,N/A,,Mostly Cloudy,80,2013-02-21 13:55:00
8:15 AM,17.6,10.4,73,30.15,10.0,ENE,15.0,-,N/A,,Partly Cloudy,70,2013-02-21 14:15:00
8:35 AM,17.6,12.2,79,30.15,10.0,East,15.0,19.6,N/A,,Partly Cloudy,80,2013-02-21 14:35:00
8:55 AM,17.6,10.4,73,30.16,10.0,East,12.7,-,N/A,,Mostly Cloudy,80,2013-02-21 14:55:00
9:15 AM,17.6,12.2,79,30.17,10.0,East,9.2,-,N/A,,Mostly Cloudy,90,2013-02-21 15:15:00
9:35 AM,17.6,10.4,73,30.17,10.0,East,11.5,17.3,N/A,,Overcast,80,2013-02-21 15:35:00
9:55 AM,19.4,12.2,74,30.17,10.0,East,10.4,-,N/A,,Overcast,80,2013-02-21 15:55:00
10:15 AM,19.4,10.4,68,30.16,10.0,ENE,13.8,-,N/A,,Overcast,70,2013-02-21 16:15:00
10:35 AM,19.4,10.4,68,30.16,10.0,East,12.7,16.1,N/A,,Mostly Cloudy,80,2013-02-21 16:35:00
10:55 AM,19.4,10.4,68,30.16,10.0,ENE,11.5,-,N/A,,Scattered Clouds,60,2013-02-21 16:55:00
11:15 AM,19.4,10.4,68,30.15,10.0,ENE,13.8,-,N/A,,Scattered Clouds,70,2013-02-21 17:15:00
11:35 AM,21.2,10.4,63,30.14,10.0,ENE,13.8,17.3,N/A,,Partly Cloudy,70,2013-02-21 17:35:00
11:55 AM,21.2,10.4,63,30.13,10.0,ENE,11.5,-,N/A,,Clear,60,2013-02-21 17:55:00
12:15 PM,21.2,10.4,63,30.12,10.0,NE,13.8,-,N/A,,Clear,50,2013-02-21 18:15:00
12:35 PM,23.0,10.4,59,30.11,10.0,ENE,15.0,-,N/A,,Clear,70,2013-02-21 18:35:00
12:55 PM,23.0,8.6,54,30.09,10.0,East,12.7,20.7,N/A,,Clear,80,2013-02-21 18:55:00
1:15 PM,23.0,8.6,54,30.07,10.0,NE,15.0,-,N/A,,Clear,50,2013-02-21 19:15:00
1:35 PM,23.0,8.6,54,30.06,10.0,ENE,16.1,-,N/A,,Partly Cloudy,60,2013-02-21 19:35:00
1:55 PM,24.8,8.6,50,30.05,10.0,ENE,16.1,20.7,N/A,,Clear,60,2013-02-21 19:55:00
2:15 PM,24.8,8.6,50,30.04,10.0,ENE,16.1,-,N/A,,Scattered Clouds,60,2013-02-21 20:15:00
2:35 PM,24.8,8.6,50,30.04,10.0,ENE,16.1,20.7,N/A,,Mostly Cloudy,70,2013-02-21 20:35:00
2:55 PM,24.8,8.6,50,30.05,10.0,ENE,18.4,-,N/A,,Overcast,70,2013-02-21 20:55:00
3:15 PM,24.8,8.6,50,30.05,8.0,ENE,18.4,23.0,N/A,,Overcast,70,2013-02-21 21:15:00
3:35 PM,23.0,12.2,63,30.05,2.0,ENE,17.3,24.2,N/A,,Overcast,70,2013-02-21 21:35:00
3:55 PM,21.2,15.8,80,30.04,1.2,ENE,16.1,20.7,N/A,,Overcast,70,2013-02-21 21:55:00
4:15 PM,21.2,17.6,86,30.04,1.0,ENE,17.3,-,N/A,,Overcast,70,2013-02-21 22:15:00
4:35 PM,21.2,19.4,93,30.03,0.5,ENE,12.7,-,N/A,,Mostly Cloudy,60,2013-02-21 22:35:00
4:55 PM,21.2,19.4,93,30.03,0.8,ENE,16.1,-,N/A,,Unknown,60,2013-02-21 22:55:00
5:15 PM,21.2,19.4,93,30.02,0.8,ENE,12.7,-,N/A,,Unknown,60,2013-02-21 23:15:00
5:35 PM,21.2,19.4,93,30.01,0.8,NE,12.7,-,N/A,,Overcast,50,2013-02-21 23:35:00
5:55 PM,19.4,17.6,93,30.00,0.8,NE,16.1,-,N/A,,Overcast,40,2013-02-21 23:55:00
6:15 PM,19.4,17.6,93,30.00,1.0,NE,13.8,19.6,N/A,,Overcast,40,2013-02-22 00:15:00
6:35 PM,19.4,17.6,93,30.00,2.5,NE,11.5,-,N/A,,Overcast,40,2013-02-22 00:35:00
6:55 PM,19.4,17.6,93,30.00,2.0,NE,12.7,-,N/A,,Overcast,40,2013-02-22 00:55:00
7:15 PM,19.4,17.6,93,30.00,1.8,NE,12.7,-,N/A,,Overcast,40,2013-02-22 01:15:00
7:35 PM,19.4,17.6,93,30.00,1.8,NE,10.4,-,N/A,,Overcast,40,2013-02-22 01:35:00
7:55 PM,19.4,17.6,93,30.00,1.5,NNE,12.7,-,N/A,,Overcast,30,2013-02-22 01:55:00
8:15 PM,19.4,15.8,86,30.00,1.2,NNE,15.0,20.7,N/A,,Overcast,30,2013-02-22 02:15:00
8:35 PM,19.4,15.8,86,30.00,1.5,NNE,16.1,19.6,N/A,,Overcast,30,2013-02-22 02:35:00
8:55 PM,17.6,15.8,93,30.00,1.0,NNE,17.3,-,N/A,,Overcast,30,2013-02-22 02:55:00
9:15 PM,17.6,15.8,93,30.00,1.2,NNE,13.8,-,N/A,,Overcast,30,2013-02-22 03:15:00
9:35 PM,17.6,14.0,86,29.99,1.5,NNE,13.8,-,N/A,,Overcast,20,2013-02-22 03:35:00
9:55 PM,17.6,14.0,86,30.00,2.0,NNE,11.5,-,N/A,,Overcast,20,2013-02-22 03:55:00
10:15 PM,17.6,14.0,86,29.99,1.8,NNE,13.8,-,N/A,,Overcast,20,2013-02-22 04:15:00
10:35 PM,17.6,15.8,93,29.98,1.8,NNE,12.7,-,N/A,,Overcast,20,2013-02-22 04:35:00
10:55 PM,17.6,15.8,93,29.97,1.0,North,13.8,-,N/A,,Overcast,10,2013-02-22 04:55:00
11:15 PM,17.6,14.0,86,29.96,1.8,North,15.0,-,N/A,,Overcast,10,2013-02-22 05:15:00
11:35 PM,17.6,14.0,86,29.96,2.5,NNE,15.0,-,N/A,,Overcast,20,2013-02-22 05:35:00
11:55 PM,17.6,14.0,86,29.96,2.0,NNE,13.8,-,N/A,,Overcast,20,2013-02-22 05:55:00